Wind_Speed
19 19 19 19 19 19 19 19 18 18 18 18 18 18 18 18 17 17 17 16 16 16 16 15 15 15 15 15 15 15 14 12 10 9 9 9 10 9 9 9 9 9 10 10 11 13 15 16 17 19 22 23 25 27 29 31 31 30 30 30 32 32 30 30 30 29 27 25 23 23 23 23 23 24 24 24 25 26 27 26 24 23 21 19 18
20 20 20 20 20 20 20 20 20 19 19 19 18 19 18 18 19 18 17 17 17 17 16 16 15 15 15 15 15 15 15 15 14 12 10 11 11 11 11 11 11 11 11 10 10 11 13 14 15 17 19 21 22 23 25 28 29 30 31 32 34 35 32 30 30 31 30 29 28 27 27 27 26 25 25 25 26 27 28 27 26 24 22 20 20
21 21 22 22 22 22 21 21 21 21 20 20 20 20 20 20 20 19 19 18 18 18 18 17 17 16 16 15 15 15 15 15 15 15 14 13 13 12 12 13 13 13 12 12 12 12 12 13 14 16 17 18 19 21 22 23 25 27 30 31 32 34 34 31 30 30 30 30 31 30 30 30 30 28 26 25 26 27 28 27 26 25 23 21 21
22 22 22 23 23 23 23 22 22 22 22 22 22 21 21 21 21 21 21 20 20 19 19 19 19 18 17 17 16 16 16 16 15 15 15 15 15 14 13 13 14 14 14 14 14 13 13 14 14 16 17 17 17 18 20 21 22 23 26 27 27 29 31 31 31 30 30 30 31 32 33 33 33 32 29 27 26 27 27 27 27 25 24 23 23
23 23 23 24 24 24 24 24 24 24 24 24 23 23 23 23 23 23 23 22 22 21 21 21 20 20 20 19 19 18 18 17 17 16 16 16 15 15 15 14 13 13 14 15 16 15 14 14 15 16 17 18 18 17 17 18 19 19 20 21 22 24 26 29 30 30 30 30 31 32 33 34 33 32 30 28 27 27 27 28 28 27 25 24 24
24 24 24 25 25 25 25 25 26 26 26 25 25 25 25 25 25 25 24 24 24 24 23 23 22 22 22 21 21 20 20 19 18 18 18 17 17 16 15 15 15 14 13 13 16 17 17 16 16 17 17 17 18 18 17 15 15 15 15 16 16 16 18 21 24 25 26 27 28 29 29 30 30 30 28 28 27 27 27 28 28 28 26 25 24
24 25 25 26 26 26 26 26 26 26 26 27 27 27 27 26 26 26 26 26 26 26 25 25 24 24 23 23 23 22 22 21 20 20 19 19 19 18 18 17 16 16 15 14 14 15 17 18 18 18 18 17 16 16 16 15 14 13 12 12 12 12 13 15 17 19 21 22 24 26 26 26 27 27 26 26 26 26 26 27 28 29 28 25 24
25 25 26 26 26 26 26 26 26 26 27 27 27 27 28 28 28 28 28 28 27 28 28 27 27 26 25 25 24 24 23 22 22 22 22 21 21 21 21 20 19 18 17 16 15 15 16 18 19 19 18 18 16 15 14 14 14 12 11 11 11 12 13 14 15 17 19 20 21 23 24 25 25 25 25 26 26 27 27 27 28 28 27 26 24
26 26 26 26 26 26 26 26 27 27 27 27 27 28 28 28 29 29 29 29 29 29 29 29 29 28 27 26 26 25 25 23 23 24 25 25 24 23 23 22 22 21 20 19 17 16 16 17 19 20 20 19 18 17 16 15 14 13 12 12 13 14 15 15 16 17 18 20 21 23 24 25 25 25 26 26 26 27 27 27 28 28 27 25 23
26 26 26 26 26 27 27 26 27 27 28 28 28 29 29 29 30 30 30 30 30 30 30 30 31 31 30 29 28 27 26 25 25 25 25 26 26 26 25 24 24 23 23 22 21 19 18 17 18 19 20 20 19 18 17 16 16 15 14 14 14 15 16 16 17 17 18 20 21 23 24 25 25 26 26 25 25 26 26 27 28 28 27 24 23
25 26 26 26 26 26 26 26 27 27 28 29 29 30 30 31 31 32 32 32 32 32 32 32 32 32 32 32 31 30 29 28 27 26 26 26 27 27 27 26 26 25 25 25 25 23 21 20 19 18 19 20 20 20 18 17 17 16 15 15 16 16 17 17 18 18 18 19 20 21 23 23 23 24 24 24 24 25 26 27 28 28 27 25 25
25 25 26 26 26 26 26 27 27 27 28 29 29 30 31 32 33 34 34 34 34 33 33 33 33 33 33 34 33 33 31 30 29 28 28 27 28 28 29 29 28 27 27 27 27 26 25 23 21 20 19 19 20 21 20 19 18 17 17 16 17 17 17 17 18 19 19 19 20 20 21 21 21 21 21 22 23 24 25 26 26 26 26 25 25
25 25 25 26 26 26 27 27 27 28 28 29 29 29 30 32 33 34 35 36 36 36 35 35 35 34 34 35 35 34 34 32 31 30 30 29 29 29 30 30 30 29 29 29 29 29 27 26 25 23 21 20 19 20 22 21 20 20 19 18 18 18 18 18 18 19 20 20 21 20 20 20 20 19 18 19 20 22 24 25 25 25 25 25 25
25 25 25 25 26 26 27 27 28 28 28 28 29 30 30 31 32 33 35 36 37 37 37 37 37 36 36 36 36 36 35 34 33 33 32 31 31 31 32 32 32 31 30 30 30 31 30 29 28 26 24 22 20 20 21 22 22 22 21 20 20 19 18 18 19 19 20 21 22 22 21 20 19 17 16 17 19 21 22 23 24 24 25 24 24
26 25 25 25 25 26 27 27 28 28 28 29 29 29 30 31 32 33 34 35 36 37 38 38 39 39 38 38 39 38 36 35 34 34 34 33 33 33 34 34 34 34 33 32 32 32 32 32 30 28 27 25 23 21 20 21 22 24 25 24 22 20 19 19 19 20 20 21 22 22 22 21 20 18 17 18 19 20 21 21 22 24 25 25 25
26 26 26 26 26 26 27 27 27 28 28 28 29 29 30 30 31 32 33 34 35 36 36 37 38 39 40 39 40 41 39 37 35 35 35 34 34 35 35 35 35 35 35 34 33 33 33 34 34 32 29 28 26 23 21 21 22 24 26 27 26 23 21 20 20 20 21 22 23 23 23 23 22 21 20 19 19 20 21 22 24 25 25 25 26
27 26 26 26 26 26 26 27 28 28 28 28 29 29 29 29 30 31 32 33 34 35 36 36 37 38 39 40 41 42 42 39 37 36 35 34 35 36 37 37 37 37 37 36 35 34 34 35 36 35 33 30 28 26 23 22 22 22 24 27 27 25 22 21 21 21 22 23 24 25 25 25 24 23 21 20 19 19 21 23 25 26 26 27 27
27 26 26 25 25 26 26 27 27 28 28 28 29 29 29 29 29 30 31 32 33 33 34 36 36 37 38 39 40 42 43 41 38 38 37 35 35 36 37 38 39 39 38 38 37 36 36 36 36 38 37 33 29 28 26 24 23 23 23 25 27 27 25 23 22 22 23 24 25 26 26 26 26 24 22 20 19 19 20 21 23 25 27 28 28
27 27 26 25 25 25 25 26 27 27 28 28 29 29 30 30 30 30 31 32 33 33 34 35 36 36 37 38 39 40 42 42 39 38 38 36 35 36 37 38 40 40 39 39 39 38 37 37 37 38 39 37 32 30 28 27 26 25 23 23 27 29 28 25 23 23 24 25 25 26 27 27 26 24 22 21 21 21 22 22 23 25 27 28 28
27 27 26 26 25 25 25 25 26 27 28 28 29 30 30 31 31 32 32 33 34 34 34 35 36 36 35 36 38 38 40 41 39 38 37 36 35 35 36 38 39 40 40 39 40 40 39 38 37 37 38 39 36 32 30 29 27 27 25 25 27 29 29 27 25 24 26 27 26 26 27 27 26 25 23 23 23 23 23 24 25 26 27 28 28
26 26 26 26 25 25 25 25 26 27 28 28 30 30 31 31 32 33 34 35 36 36 36 36 37 37 36 36 37 37 38 39 39 38 37 36 35 34 35 36 37 38 39 40 40 41 40 39 38 37 37 38 38 34 31 29 28 27 28 28 28 27 28 28 27 26 26 28 28 27 26 27 27 26 25 25 25 25 25 26 26 27 27 27 27
26 26 25 25 25 25 25 25 26 27 28 28 30 31 31 31 33 34 35 36 37 38 38 38 38 39 38 37 37 36 36 37 38 37 36 36 35 33 33 35 34 33 35 38 40 41 41 40 39 37 34 35 36 35 33 30 28 28 30 30 29 29 29 29 29 27 26 27 28 28 27 28 28 28 28 28 28 27 27 27 27 27 26 25 24
25 25 25 24 24 24 25 25 26 27 28 29 30 32 32 32 33 33 34 36 37 38 38 38 39 40 40 38 38 37 36 36 36 36 35 34 34 33 32 33 32 30 31 35 38 40 41 41 40 37 33 32 34 35 34 31 28 28 30 30 30 31 31 31 30 29 27 26 28 29 29 29 29 29 29 30 29 28 28 27 26 25 24 22 21
25 24 24 24 24 24 24 25 25 26 27 28 30 32 32 32 33 33 33 34 36 37 38 38 38 40 40 39 38 37 37 36 35 35 34 33 32 32 31 32 32 30 30 33 36 37 39 39 39 38 34 31 32 35 36 33 30 29 30 31 31 32 33 34 33 31 28 28 29 31 31 30 30 30 29 30 29 29 28 28 26 25 24 23 22
25 24 23 23 23 24 24 25 25 26 27 28 29 31 31 32 32 33 32 33 34 35 36 36 37 38 39 39 39 37 35 35 34 33 32 32 31 30 28 29 30 30 30 32 34 36 36 37 36 36 35 32 31 35 38 36 31 29 30 31 32 33 35 36 36 34 32 31 31 32 32 31 30 30 29 30 30 30 30 29 28 27 27 25 24
25 24 24 23 23 24 25 26 26 26 26 27 28 29 29 30 31 31 31 32 33 33 34 35 35 36 37 37 37 36 34 32 32 32 31 31 31 28 25 25 26 28 28 28 31 32 33 34 35 35 35 34 33 35 38 37 32 30 31 33 34 34 35 36 37 36 35 34 33 34 34 32 32 31 31 32 32 32 31 31 30 29 27 25 24
25 24 24 24 24 24 26 26 26 26 26 26 27 28 28 28 30 30 30 30 31 32 33 33 33 33 34 34 33 33 32 31 31 30 30 30 29 25 23 23 24 25 24 25 27 30 31 32 33 33 34 35 35 36 37 37 35 33 34 35 35 35 35 35 36 36 36 36 35 34 34 34 34 34 34 34 34 33 32 31 30 29 27 25 23
25 24 24 24 24 24 25 26 26 27 27 27 28 28 28 28 28 29 28 28 30 32 31 31 31 30 30 30 30 30 31 31 30 29 30 29 27 26 28 31 31 30 28 27 28 31 32 32 33 32 31 33 34 36 37 38 37 36 35 36 35 34 34 35 35 36 37 37 35 35 35 36 36 36 36 36 35 33 32 30 29 27 26 24 22
24 24 23 24 24 24 25 25 26 27 28 28 28 28 27 27 28 29 28 27 28 29 29 30 30 29 29 30 31 32 34 33 31 30 31 31 31 33 36 37 36 35 33 30 30 32 34 34 33 30 28 29 32 35 38 38 36 35 35 35 35 35 35 35 37 38 38 37 36 36 38 38 38 38 38 36 35 33 31 29 27 26 24 22 20
23 23 22 23 23 24 25 25 26 27 28 28 29 29 27 26 26 28 29 28 26 24 24 25 27 28 32 35 34 36 38 37 35 34 33 34 35 36 36 36 34 34 33 32 33 36 36 35 33 30 28 29 32 35 38 37 35 34 36 36 36 36 36 36 38 38 37 36 37 38 40 40 40 39 38 36 34 32 30 28 26 24 22 21 19
23 22 22 23 23 24 25 26 26 27 27 27 29 31 31 29 26 25 26 27 26 22 19 20 21 23 28 32 33 34 35 34 34 34 35 36 36 36 35 33 32 30 29 30 34 37 36 35 34 31 29 31 34 37 38 37 35 35 37 37 38 37 37 36 38 37 36 36 38 40 40 40 40 39 37 36 34 32 30 27 25 22 21 19 17
23 23 23 23 23 23 25 26 26 27 27 28 29 31 32 33 32 28 25 24 25 23 19 17 16 17 20 24 27 28 30 32 33 34 34 35 36 36 35 34 32 31 29 29 32 35 35 35 35 32 30 32 37 40 39 37 35 36 38 39 38 38 36 36 36 36 35 36 39 40 39 38 38 37 36 35 33 31 29 27 24 22 20 18 16
22 22 22 23 23 23 24 25 26 26 27 28 29 29 29 31 34 34 29 25 23 21 19 16 15 16 17 19 21 24 27 29 30 32 33 33 34 34 34 32 32 31 30 29 32 34 34 34 34 32 31 33 37 39 38 35 34 35 38 39 38 37 36 35 35 35 35 36 37 37 36 36 37 36 35 33 31 30 28 26 23 21 19 17 15
20 21 22 23 23 24 24 24 25 25 26 26 27 28 27 28 30 33 33 31 26 23 20 18 17 18 18 18 18 21 24 27 28 30 31 33 34 33 30 29 29 28 28 29 31 32 32 32 32 31 31 33 35 36 35 34 34 36 38 38 37 36 35 34 34 35 35 36 36 35 36 37 37 36 34 32 30 28 26 24 22 20 18 16 14
19 20 21 22 23 24 24 24 24 24 24 25 25 26 27 27 27 28 30 31 31 29 26 23 21 20 20 20 20 21 23 25 26 27 28 30 32 31 27 23 23 24 24 26 28 27 28 29 30 30 31 32 34 35 35 34 35 36 37 37 36 35 34 33 34 35 35 35 34 35 36 36 35 33 32 30 28 26 24 22 20 18 16 14 13
19 20 20 21 22 23 23 23 23 23 23 24 24 25 25 26 26 26 26 27 29 30 29 27 24 22 21 20 20 20 21 22 23 25 26 27 29 29 25 19 18 21 23 23 23 23 24 26 28 29 30 30 32 33 33 33 33 34 34 34 34 33 32 32 33 34 33 33 33 35 35 35 33 31 29 28 25 23 22 20 19 17 15 13 12
18 19 20 20 21 22 22 22 22 22 22 23 23 24 25 25 25 25 25 26 27 28 28 27 26 24 22 20 19 19 19 19 20 21 23 24 24 23 19 12 13 17 19 19 18 18 20 22 23 25 26 27 27 28 28 29 30 30 30 31 31 31 31 32 32 33 32 32 33 34 34 32 30 28 27 25 24 22 20 18 17 15 14 12 10
18 18 19 20 21 22 22 22 22 22 22 22 22 22 24 24 24 24 24 25 26 27 26 26 26 26 25 24 22 21 19 18 17 17 18 18 17 15 10 5 6 9 11 12 13 14 16 18 19 21 21 22 22 23 24 25 26 27 28 29 29 29 30 31 32 32 32 33 34 33 32 30 28 26 24 22 22 21 19 17 15 14 12 11 9
17 17 18 19 20 20 21 21 21 21 21 21 21 22 22 23 24 24 24 24 25 25 26 25 25 25 26 26 25 23 21 20 19 18 18 17 14 12 10 7 5 4 5 7 10 12 13 14 16 17 18 19 20 20 21 22 23 25 26 27 27 28 29 31 32 33 33 33 33 32 31 29 27 25 23 20 19 18 17 16 15 13 11 9 8
16 17 17 17 18 19 19 20 20 20 21 21 21 22 22 22 23 24 24 24 24 24 24 24 24 23 24 24 24 24 24 23 23 21 19 18 16 14 13 12 11 10 10 10 12 13 13 15 16 17 17 18 18 19 19 20 22 23 24 25 26 28 30 31 33 33 33 32 32 31 29 27 26 24 22 20 18 17 16 15 14 12 11 9 7
15 16 16 16 17 17 18 18 19 20 20 21 21 22 22 22 23 23 23 23 23 24 23 22 22 21 21 21 21 22 22 22 22 20 19 18 16 15 15 14 14 13 13 13 13 14 14 14 15 15 16 16 17 17 18 18 19 21 22 24 27 29 31 32 32 32 32 31 30 29 27 25 24 22 21 19 18 17 15 14 13 11 10 8 7
14 14 14 15 16 16 17 18 19 19 19 20 20 21 21 21 22 22 22 22 22 23 22 21 20 19 19 19 19 19 18 18 18 17 17 16 15 14 14 13 13 13 12 11 10 10 10 11 11 12 13 14 14 14 15 16 18 20 22 25 28 30 31 32 31 30 30 29 28 26 25 24 22 20 19 18 17 16 15 13 12 10 9 7 6
13 13 14 14 15 16 17 18 19 19 19 20 20 20 20 20 21 21 21 21 21 21 21 21 20 18 17 17 17 16 15 15 15 15 15 14 14 13 12 11 10 9 8 6 4 4 5 6 7 8 8 9 10 11 13 15 17 20 23 25 27 28 29 29 28 27 26 26 25 24 22 21 20 19 18 17 16 15 13 12 10 8 7 6 5
13 13 14 15 15 15 16 18 18 19 19 20 20 20 20 20 20 20 20 20 20 20 20 20 19 18 17 16 15 14 14 13 13 13 12 12 12 11 11 11 10 9 6 4 3 3 2 2 5 7 8 9 10 13 16 18 19 21 22 24 25 26 26 25 25 24 23 22 22 21 21 20 19 18 17 16 14 13 11 10 8 7 6 5 4
13 14 14 15 16 16 16 17 18 19 19 19 20 20 20 20 20 19 19 19 19 19 19 18 18 17 17 16 15 14 13 12 12 11 11 10 10 10 10 10 10 9 8 8 8 8 8 8 10 11 13 13 14 16 18 19 19 20 21 21 22 23 23 23 22 22 20 19 19 19 19 18 17 16 15 14 13 11 10 8 7 6 4 3 3
13 14 15 16 17 17 17 18 18 19 20 20 20 20 20 20 20 19 19 19 19 19 18 18 17 16 15 15 14 13 12 11 10 10 9 9 9 8 8 8 8 8 8 9 9 9 10 11 13 14 15 16 17 18 18 19 19 19 19 19 20 20 21 21 21 20 19 18 17 17 16 16 15 14 13 12 11 10 8 7 5 4 3 3 2
14 15 16 17 18 19 19 19 20 20 20 21 21 20 20 20 20 19 19 18 18 18 17 17 16 16 15 14 13 12 12 11 10 9 8 8 8 7 7 7 7 7 8 8 8 9 10 11 12 14 15 16 16 17 18 19 19 19 20 19 19 19 20 20 19 19 19 18 16 16 15 14 13 13 12 10 9 8 6 5 4 3 2 2 3
16 17 18 19 20 21 21 21 21 21 21 21 21 21 20 20 20 19 19 18 18 17 17 16 15 15 14 13 12 11 11 10 10 8 8 7 6 6 6 6 6 7 7 8 8 9 10 10 11 13 14 14 15 16 16 17 18 18 19 19 19 19 19 19 18 18 17 16 16 15 14 13 12 11 10 9 7 6 5 4 3 2 2 3 4
18 19 20 21 22 23 23 23 23 23 22 22 22 22 21 20 20 19 19 18 17 17 16 15 15 15 14 13 12 11 10 9 9 8 7 6 5 5 5 5 5 6 6 7 7 8 9 10 11 12 12 13 14 15 15 16 16 17 17 18 18 18 18 17 17 16 15 15 14 14 13 12 10 9 8 7 5 4 3 2 2 2 3 4 5
20 21 23 23 24 24 24 25 25 24 23 23 23 22 21 21 20 19 18 18 17 17 16 15 15 14 13 12 12 10 9 9 8 7 6 6 5 4 4 4 4 5 5 6 6 7 8 9 10 11 11 12 12 13 14 14 15 15 15 15 15 15 15 15 15 14 14 13 13 12 11 10 9 7 6 5 4 3 3 2 3 3 4 5 6
23 24 25 26 26 26 26 26 26 25 24 23 23 22 22 21 20 19 19 18 17 17 16 15 14 14 13 13 12 10 9 9 8 7 6 5 5 4 3 3 3 3 4 4 5 6 7 8 9 10 10 10 11 11 12 12 13 13 13 13 13 13 13 13 13 13 12 12 11 10 9 8 7 5 4 4 3 3 3 3 4 5 5 6 7
Wind_Direction
8 7 6 6 5 4 4 4 3 3 2 1 1 1 0 0 1 4 5 6 7 10 11 14 17 20 22 24 25 25 23 19 9 353 343 340 337 331 322 311 300 290 282 278 277 275 274 273 271 270 269 264 255 247 244 244 246 247 248 250 251 251 250 247 247 251 252 250 251 254 256 255 251 247 245 244 241 237 235 236 237 240 242 241 237
0 360 359 357 356 356 356 355 354 354 353 353 352 352 352 352 351 351 353 354 356 357 358 0 3 6 9 11 14 17 19 19 17 10 359 349 340 334 330 325 319 310 301 295 290 287 285 281 278 274 271 270 268 261 252 246 244 244 244 245 248 251 253 252 248 247 247 247 247 247 251 253 251 248 248 247 244 240 238 239 240 241 241 240 238
353 352 352 351 350 349 348 347 347 346 344 344 344 345 344 344 344 343 342 344 346 346 346 348 349 351 354 357 0 5 8 11 12 11 10 5 356 346 335 327 323 320 316 311 303 298 295 291 288 284 279 273 269 268 265 259 253 249 245 244 245 248 252 256 255 252 249 247 247 247 247 249 250 249 247 246 243 242 240 240 241 241 240 240 239
346 345 345 344 343 343 342 341 341 340 339 339 338 338 338 337 337 336 335 335 336 337 338 338 338 339 341 343 347 351 355 359 1 1 4 5 3 359 350 337 326 319 317 317 313 306 301 298 296 292 289 284 276 268 265 264 261 255 251 249 248 247 248 252 255 256 254 251 251 252 249 246 246 246 245 245 244 243 242 241 241 240 238 238 237
339 338 338 337 337 337 337 336 335 335 334 334 334 333 333 332 332 331 330 329 329 330 331 331 331 331 332 333 336 339 343 346 347 348 351 353 354 355 353 350 341 326 313 309 311 310 305 301 299 296 291 287 283 275 264 259 259 257 256 255 252 248 247 247 249 253 256 255 254 253 251 246 244 243 243 243 244 242 240 239 240 239 235 232 231
333 332 332 331 331 332 331 331 331 331 331 330 330 329 329 328 328 327 326 324 324 324 325 326 326 325 326 327 328 329 332 335 335 335 337 338 339 341 343 345 346 342 329 311 304 303 302 299 297 296 293 287 281 277 268 260 258 258 258 256 251 248 247 247 247 248 252 254 252 250 248 247 246 244 242 242 241 241 240 239 239 239 235 230 228
328 327 327 326 326 326 326 327 327 327 327 327 326 326 325 325 324 324 323 322 321 320 320 320 321 321 321 321 322 323 324 326 326 325 325 326 327 328 330 332 336 340 341 333 318 306 300 299 297 295 294 288 279 273 269 263 260 261 262 259 255 253 253 252 251 249 248 248 248 247 245 244 244 243 241 240 238 238 240 241 240 239 236 232 232
324 323 323 322 322 322 322 323 323 323 323 323 323 322 322 322 321 320 320 319 319 317 317 317 316 317 317 316 316 317 318 320 320 319 319 319 319 319 320 322 325 328 331 335 335 326 313 302 296 294 294 290 282 275 271 267 263 261 262 262 261 261 260 256 254 254 252 248 247 245 243 242 241 238 237 238 238 239 241 241 240 240 238 236 234
320 320 319 319 318 318 319 319 320 320 320 320 320 320 320 319 319 318 317 316 316 315 314 315 313 312 312 312 311 312 312 314 316 316 316 316 315 314 313 314 315 318 320 323 327 330 326 315 303 295 292 290 285 276 271 269 268 265 262 261 261 262 261 258 255 255 254 251 248 245 243 242 241 240 240 243 245 245 244 241 238 237 238 237 235
317 316 316 315 315 315 315 316 316 317 317 318 318 318 318 318 317 316 315 314 313 312 311 311 311 310 309 308 307 307 308 309 311 312 313 312 311 310 309 308 308 309 311 314 316 319 322 323 318 306 296 291 287 278 269 265 266 267 264 262 260 260 258 258 256 254 253 253 250 248 247 247 247 248 249 250 250 246 243 240 236 234 234 234 231
314 313 313 312 312 311 311 311 312 313 314 315 315 316 316 316 316 315 314 313 311 310 309 308 308 308 307 306 305 305 304 306 307 307 307 307 307 306 305 304 303 303 304 306 308 309 311 315 320 318 307 295 287 282 275 268 265 266 266 264 261 261 260 259 257 255 253 253 252 252 252 253 254 253 252 251 248 244 240 237 236 235 235 234 230
312 311 311 310 309 309 308 308 308 308 309 310 311 312 313 314 314 313 313 312 310 309 307 306 305 305 304 303 302 302 302 302 303 304 303 302 302 301 300 300 299 299 299 300 300 302 304 305 308 313 315 307 294 286 281 276 270 266 266 265 263 262 262 261 260 258 254 253 253 254 255 256 256 254 253 252 249 244 238 236 237 238 238 236 233
311 310 309 309 308 307 306 306 305 305 305 305 306 307 308 310 310 310 310 310 309 308 307 306 304 302 301 300 299 299 299 300 300 300 300 299 299 298 296 295 295 295 295 295 295 296 297 299 300 302 307 309 304 294 287 283 280 274 269 265 263 263 262 260 260 258 255 254 254 254 255 256 254 253 253 253 250 244 238 236 237 237 235 234 233
312 310 309 308 308 307 306 305 303 302 302 302 302 302 304 305 305 306 307 307 306 306 305 304 302 301 300 298 296 295 295 297 298 298 298 297 297 295 293 292 291 290 290 291 291 291 292 293 294 295 297 300 303 300 293 288 287 284 279 273 267 264 262 262 261 259 256 255 254 254 253 251 250 250 252 254 253 249 245 242 241 237 232 231 231
313 312 310 309 308 307 306 305 303 302 301 300 300 299 300 301 301 302 302 302 303 303 302 302 301 300 299 298 296 294 293 294 295 295 295 296 295 294 291 290 288 286 286 286 286 287 287 287 287 289 290 292 294 295 294 290 286 285 283 280 274 268 265 263 261 260 258 256 256 255 252 249 247 246 249 252 253 250 247 245 243 238 233 228 227
314 313 313 312 311 310 309 307 305 304 302 301 299 299 298 298 298 299 298 298 299 299 299 299 298 297 297 296 295 293 291 292 293 292 293 294 293 292 290 288 286 284 283 283 283 283 283 284 283 283 283 285 286 287 288 288 285 284 284 283 278 270 266 264 262 260 257 254 253 252 250 247 245 244 245 246 248 246 240 235 233 232 230 226 223
313 314 314 314 314 314 313 311 309 308 306 304 302 301 300 298 298 298 297 296 296 296 297 297 296 296 295 294 294 292 290 290 292 291 291 291 292 290 289 287 285 283 281 280 280 280 280 280 281 280 279 278 279 279 280 279 280 282 283 284 280 271 265 265 265 264 260 255 251 248 246 244 243 243 244 243 243 244 240 234 231 230 228 225 222
313 314 314 315 316 316 315 314 312 311 310 308 307 306 305 303 302 300 299 297 295 295 295 295 294 294 294 293 293 291 289 289 291 290 290 291 290 289 288 286 284 282 281 280 279 278 277 278 279 279 278 276 273 272 272 270 270 272 276 280 279 273 266 265 267 268 266 261 256 250 247 245 244 244 244 240 238 239 239 238 237 235 232 228 224
313 315 315 317 317 316 315 314 313 313 311 311 310 309 307 306 305 304 302 300 298 297 295 294 292 292 292 291 291 290 288 288 288 289 288 289 289 288 287 285 283 281 281 281 279 277 275 276 277 277 278 276 271 267 266 264 263 263 264 269 272 272 267 264 266 270 268 265 261 255 249 246 244 241 238 236 236 238 238 236 235 233 231 229 226
314 314 315 318 318 317 316 315 314 313 312 312 311 310 309 309 307 306 305 303 302 300 298 297 294 292 291 290 289 288 288 287 287 287 286 286 286 287 286 284 282 281 281 281 279 277 275 274 275 276 277 277 273 267 263 260 258 257 256 257 263 268 269 265 263 266 266 262 259 255 250 245 241 236 234 235 237 238 237 232 229 228 228 228 225
312 313 315 317 318 318 318 316 315 314 314 314 313 311 312 312 311 310 309 307 306 304 302 301 298 295 293 292 289 287 287 286 285 284 284 283 283 284 283 281 280 281 281 279 277 276 275 273 273 274 275 276 276 272 265 260 256 255 253 253 256 263 266 262 259 260 262 260 256 252 247 242 237 234 234 235 236 234 231 229 226 224 224 224 222
311 312 315 317 317 318 318 316 316 316 316 316 314 313 314 315 314 313 312 310 308 306 305 304 302 299 297 295 293 290 288 287 285 284 283 281 280 281 280 278 277 279 280 278 276 275 274 273 272 273 273 274 275 275 272 265 258 254 253 252 253 255 258 258 255 254 256 257 254 249 244 238 235 234 233 233 230 227 223 221 219 219 220 221 221
310 313 316 316 316 317 316 316 316 316 317 317 315 314 315 316 315 314 314 312 310 308 308 308 307 304 301 299 298 295 292 290 288 287 285 283 280 279 278 274 273 274 275 276 275 275 274 273 271 270 268 269 272 273 274 271 262 255 256 255 252 252 253 253 252 248 247 249 250 246 241 237 235 233 231 227 223 219 216 213 212 213 215 215 215
311 314 315 315 316 316 315 315 316 316 316 316 315 314 316 316 315 315 315 314 312 311 311 311 309 307 305 303 301 299 297 296 292 290 290 288 284 280 277 274 271 269 270 271 272 273 274 274 274 272 267 264 265 268 271 272 265 258 259 259 255 252 251 250 248 245 240 239 242 241 239 237 235 232 228 222 217 212 210 208 206 206 207 207 208
313 315 316 316 316 315 315 315 316 316 316 316 315 315 316 316 315 316 316 315 314 313 311 310 309 307 306 305 303 302 302 300 297 294 293 292 288 285 282 278 272 267 268 268 267 268 269 270 272 272 267 260 259 262 266 268 265 260 260 261 257 252 250 248 246 243 238 234 234 235 235 234 231 226 222 217 212 207 205 203 201 201 202 203 204
314 315 316 316 316 316 316 316 317 316 315 315 314 315 316 316 315 316 316 316 314 312 310 309 307 305 304 305 306 306 306 303 299 297 296 295 294 292 290 286 278 269 267 269 269 269 269 270 270 270 267 259 252 254 260 263 263 260 257 255 254 252 249 246 244 242 239 234 230 230 232 229 223 217 213 210 206 203 201 201 199 198 198 200 202
313 315 316 316 317 317 316 316 316 316 316 317 317 316 317 317 316 316 318 318 315 312 309 307 305 303 303 304 305 305 304 302 300 300 302 302 298 294 295 297 295 286 278 277 278 275 273 274 274 273 272 264 251 247 255 259 258 256 251 247 250 252 249 244 242 240 238 234 230 229 228 222 215 209 205 203 200 198 198 198 199 197 195 198 201
312 315 317 317 317 317 315 316 317 319 320 321 319 318 319 319 318 317 320 320 316 312 310 306 303 302 302 303 304 304 302 300 301 306 311 309 302 299 301 301 300 298 290 279 275 276 276 277 276 272 271 266 253 247 250 251 250 249 246 245 248 251 247 242 238 236 235 233 231 228 223 215 208 204 200 198 196 195 193 194 197 197 196 197 200
311 315 316 316 317 316 316 319 323 323 322 320 318 318 320 322 322 321 323 323 319 314 309 305 304 306 306 305 306 306 303 304 309 316 317 310 299 295 295 292 291 293 290 277 271 276 281 282 280 277 274 268 258 249 245 241 239 241 242 243 247 248 244 239 235 232 231 230 229 226 219 211 205 200 196 195 194 192 190 191 194 195 194 194 195
312 315 317 317 318 318 319 323 324 322 320 319 319 319 320 323 326 327 326 324 320 314 306 302 301 302 300 301 303 304 306 310 316 315 308 299 291 289 288 284 280 282 283 278 272 273 275 278 279 279 277 271 261 251 242 236 235 238 240 242 244 244 242 238 233 231 230 229 226 221 215 209 203 198 195 194 192 190 189 189 190 192 193 193 193
313 317 319 319 320 321 322 323 322 320 321 323 324 324 324 325 328 330 328 325 322 317 309 302 299 294 293 296 300 300 300 301 301 296 291 290 291 290 288 283 276 272 275 277 273 267 267 272 275 275 273 267 259 250 242 236 236 238 239 240 240 240 239 236 232 229 227 225 221 215 210 206 201 197 195 193 192 190 188 187 187 188 189 191 193
314 317 319 319 321 322 322 322 321 322 325 328 327 326 327 328 330 331 331 327 325 322 317 309 302 295 292 293 293 291 287 285 285 288 292 296 297 295 291 285 277 269 269 274 271 264 262 267 270 271 268 261 252 244 238 235 235 237 239 238 238 237 236 234 231 227 223 221 216 211 206 203 199 195 193 192 192 190 186 185 185 186 188 190 192
313 315 318 319 321 322 322 321 323 326 328 328 327 327 329 331 331 332 332 330 326 324 322 318 312 306 298 293 290 288 286 287 291 296 300 303 303 299 293 285 276 268 266 270 271 266 263 264 265 265 263 254 243 236 233 233 234 237 237 236 236 235 233 230 226 222 218 215 212 208 204 200 197 194 190 188 188 188 185 183 184 185 187 190 191
311 314 317 319 320 321 322 322 324 326 326 326 325 327 330 332 332 333 334 333 330 326 325 324 322 317 309 302 298 296 295 296 299 303 305 307 307 302 294 284 274 268 265 266 267 264 261 260 259 259 257 250 241 236 235 235 236 236 235 234 233 232 230 225 220 216 213 210 208 205 201 197 194 191 188 185 184 185 184 183 184 185 186 189 191
310 313 316 317 318 319 321 322 323 323 323 325 327 329 331 332 332 333 335 335 332 329 326 324 323 323 321 315 309 305 303 303 304 306 307 307 306 305 301 287 273 266 264 265 267 262 255 250 249 250 250 248 243 240 239 238 238 237 235 233 231 229 226 222 216 212 209 207 204 201 196 192 189 188 187 184 182 182 182 182 182 183 185 188 190
309 312 315 316 316 316 318 321 322 322 323 327 330 330 330 332 332 332 333 334 332 329 327 325 322 322 322 321 315 310 308 308 309 311 313 311 310 310 308 290 268 264 263 261 257 248 239 237 240 244 246 246 244 242 241 240 240 238 235 232 230 227 224 219 213 208 205 202 198 194 191 188 185 185 184 183 180 181 182 181 180 181 183 186 189
308 311 313 314 314 316 318 321 323 324 325 328 330 329 330 331 331 331 333 335 333 330 329 330 328 324 322 323 322 317 314 314 316 317 317 314 308 305 298 272 244 245 245 239 235 233 236 241 245 247 248 247 246 245 245 245 244 239 233 230 227 225 222 215 208 203 199 194 191 189 186 184 182 182 182 182 180 178 179 180 180 181 183 185 187
308 311 313 314 315 317 319 322 324 325 326 328 330 330 331 331 331 332 334 336 335 332 332 334 335 333 330 329 330 327 323 321 322 322 320 317 310 304 297 269 230 229 231 234 245 256 261 263 262 258 255 252 251 251 250 248 244 237 231 227 224 221 216 208 201 195 191 188 186 184 183 181 179 178 180 182 181 178 178 179 181 182 182 182 183
308 311 314 314 315 317 320 323 325 326 326 329 331 331 330 331 332 334 336 337 336 335 335 336 338 338 335 334 334 333 333 332 332 331 330 328 325 321 321 322 320 308 288 280 283 284 283 282 280 275 268 262 258 253 249 245 239 233 229 225 221 214 207 199 192 187 185 184 182 180 179 179 177 175 176 179 180 179 179 179 179 180 179 177 177
309 312 314 314 315 319 322 324 326 327 328 330 332 331 331 332 334 335 336 337 336 335 336 338 339 339 338 338 338 339 339 339 338 336 334 331 327 324 323 322 322 319 312 302 297 295 292 287 282 276 270 264 258 251 245 240 236 230 225 220 213 204 196 190 185 182 181 181 180 178 177 177 176 174 174 176 178 179 179 179 177 176 175 174 174
312 315 316 318 320 323 325 327 329 330 331 331 332 332 332 333 333 334 336 337 336 335 336 338 340 340 340 340 341 341 340 340 340 339 338 336 333 328 324 320 315 309 303 298 296 294 289 282 274 266 261 256 250 245 239 234 230 224 216 207 199 191 185 181 180 178 178 178 176 175 174 175 175 175 176 176 177 177 177 177 176 172 171 172 173
315 317 320 323 326 327 329 331 332 333 332 332 333 333 332 332 332 333 335 337 336 335 335 338 341 342 342 342 342 342 342 342 344 346 347 346 344 340 334 328 320 311 302 297 294 291 285 276 264 255 248 242 236 232 227 222 215 208 199 192 187 182 178 176 175 175 175 174 173 173 173 173 173 174 175 176 176 176 176 175 174 170 169 172 174
317 321 325 327 329 330 332 333 334 335 334 334 334 334 333 332 332 332 334 335 335 335 336 337 340 343 344 344 344 344 345 348 351 355 359 1 0 0 360 356 348 336 322 309 298 289 280 265 247 231 222 217 213 207 200 195 191 186 182 179 177 175 173 171 171 171 172 172 171 171 171 172 171 172 173 174 174 174 173 172 170 169 168 172 179
321 325 327 328 329 332 333 332 332 334 335 335 335 335 334 333 333 332 333 334 335 335 336 337 339 342 344 346 346 347 352 356 357 1 7 11 14 20 26 29 29 24 22 33 65 93 121 172 182 175 168 168 172 173 170 168 167 168 169 169 170 169 168 167 167 167 168 170 170 169 169 170 170 171 172 172 171 171 170 169 167 167 171 179 193
326 328 329 330 332 333 333 332 332 332 333 333 334 335 335 335 335 334 333 333 333 335 336 337 338 340 342 346 347 350 355 359 2 5 11 18 24 31 39 46 51 52 56 67 81 96 111 125 135 139 139 142 147 151 153 153 156 159 162 164 166 166 164 164 164 163 164 167 168 167 167 168 168 169 169 169 168 166 166 165 165 169 181 197 216
330 330 330 331 332 332 333 333 332 332 332 332 332 333 334 335 335 335 334 333 333 333 335 337 337 338 340 343 345 349 354 359 3 8 14 21 28 36 46 56 63 68 74 80 88 100 111 120 127 133 136 139 143 147 148 149 151 154 155 158 161 162 161 161 160 159 159 161 163 165 166 167 167 167 167 167 165 163 162 165 170 178 199 226 250
328 327 327 328 328 329 330 330 330 330 331 330 331 331 332 332 333 334 334 334 333 332 333 334 335 336 338 340 342 346 351 355 1 8 16 22 28 36 48 59 70 78 86 92 99 107 114 121 127 132 136 139 143 147 148 149 150 151 152 153 156 157 157 157 157 157 158 158 159 162 164 164 165 165 163 162 160 159 161 169 180 193 225 262 289
322 323 323 324 324 324 325 325 324 325 326 326 327 329 329 329 330 331 332 333 333 332 332 332 333 333 335 337 339 342 346 350 355 2 11 19 28 35 43 57 72 82 90 99 106 112 117 121 126 130 134 138 141 144 146 147 149 150 151 152 153 154 155 155 156 156 158 158 160 161 161 161 161 162 160 159 160 162 167 181 202 227 263 290 306
317 317 319 319 319 320 320 319 318 319 320 320 322 324 325 326 327 327 327 329 331 332 331 331 330 330 332 333 335 337 339 343 348 354 0 11 25 34 41 54 67 78 88 99 107 112 116 120 123 128 132 136 139 141 143 145 147 149 150 151 153 153 154 154 155 156 158 160 161 161 161 159 159 160 160 161 163 168 179 202 239 268 285 298 306
312 312 314 315 315 315 315 314 313 313 313 313 315 317 319 322 324 324 324 324 326 328 330 330 329 328 328 329 331 332 333 335 340 345 350 358 10 23 37 55 68 76 86 97 105 110 116 120 124 127 131 133 136 140 142 143 145 147 149 151 152 153 154 155 156 158 160 161 161 161 161 159 159 161 165 167 174 188 209 235 263 280 292 300 305
308 309 310 311 312 312 311 310 310 309 307 307 308 310 313 316 319 321 322 321 321 322 325 327 327 326 325 325 326 327 328 329 332 334 338 345 353 2 17 40 62 78 89 99 105 111 117 121 125 129 132 134 136 139 141 143 145 147 149 151 153 154 156 158 160 161 163 164 164 163 162 161 162 167 174 184 200 220 243 267 282 289 296 301 303
Height
1506 1505 1504 1504 1503 1502 1501 1500 1499 1499 1497 1497 1496 1495 1494 1493 1492 1491 1490 1490 1489 1488 1487 1486 1486 1485 1484 1483 1482 1481 1480 1479 1479 1478 1478 1477 1477 1477 1476 1476 1475 1475 1475 1475 1475 1474 1474 1474 1475 1475 1475 1474 1475 1475 1475 1476 1477 1478 1479 1480 1480 1480 1481 1481 1481 1481 1482 1483 1483 1484 1485 1485 1486 1487 1488 1488 1490 1491 1491 1492 1492 1493 1494 1495 1496
1506 1505 1504 1503 1502 1501 1501 1500 1499 1499 1498 1497 1496 1495 1494 1493 1492 1491 1490 1490 1489 1488 1488 1487 1486 1485 1485 1484 1483 1482 1480 1479 1478 1477 1476 1476 1475 1475 1474 1474 1474 1473 1473 1473 1472 1472 1472 1472 1472 1472 1472 1472 1472 1472 1472 1472 1473 1473 1474 1475 1476 1477 1477 1478 1478 1478 1478 1480 1480 1481 1482 1483 1483 1484 1485 1485 1487 1488 1488 1489 1490 1490 1491 1492 1493
1506 1505 1504 1503 1502 1501 1501 1499 1499 1498 1497 1496 1495 1495 1494 1493 1492 1491 1490 1490 1489 1488 1487 1487 1486 1485 1485 1484 1483 1482 1480 1478 1477 1476 1475 1475 1474 1474 1473 1473 1472 1472 1471 1471 1470 1470 1470 1470 1470 1470 1470 1469 1469 1469 1469 1469 1469 1470 1470 1471 1472 1473 1473 1474 1475 1475 1475 1476 1477 1478 1479 1480 1480 1481 1482 1482 1483 1484 1485 1486 1487 1488 1489 1490 1490
1506 1504 1503 1503 1501 1500 1500 1499 1498 1497 1496 1495 1494 1494 1493 1492 1491 1490 1490 1489 1488 1487 1486 1486 1485 1484 1484 1483 1482 1481 1479 1478 1477 1476 1475 1474 1474 1473 1473 1472 1472 1471 1470 1470 1469 1469 1468 1468 1468 1468 1467 1467 1467 1467 1467 1467 1467 1467 1467 1467 1468 1469 1469 1470 1471 1471 1471 1472 1473 1474 1475 1476 1476 1478 1479 1479 1480 1481 1482 1483 1484 1485 1486 1487 1487
1505 1504 1503 1502 1500 1499 1498 1497 1496 1495 1495 1494 1493 1492 1491 1490 1490 1489 1488 1487 1487 1486 1485 1484 1484 1483 1482 1481 1480 1480 1479 1477 1476 1475 1475 1474 1473 1473 1472 1471 1471 1470 1470 1469 1468 1468 1467 1467 1467 1466 1465 1465 1465 1465 1465 1464 1464 1464 1464 1465 1465 1465 1465 1466 1466 1467 1468 1468 1469 1471 1471 1472 1473 1474 1475 1476 1476 1477 1478 1479 1480 1482 1483 1484 1484
1504 1503 1502 1501 1499 1498 1497 1496 1495 1494 1493 1492 1491 1490 1490 1489 1488 1487 1486 1485 1485 1484 1483 1483 1482 1481 1481 1480 1479 1478 1477 1477 1476 1474 1473 1473 1472 1472 1471 1471 1470 1469 1469 1468 1467 1467 1466 1466 1465 1465 1464 1463 1463 1463 1462 1462 1462 1462 1462 1462 1462 1462 1462 1463 1463 1463 1464 1465 1465 1466 1467 1468 1469 1470 1471 1472 1473 1474 1475 1476 1477 1479 1480 1481 1481
1504 1502 1501 1499 1498 1497 1496 1495 1493 1492 1491 1490 1489 1489 1488 1487 1486 1485 1484 1483 1483 1482 1481 1481 1480 1480 1479 1478 1478 1477 1476 1475 1475 1473 1472 1471 1470 1470 1469 1469 1469 1468 1467 1467 1466 1465 1465 1464 1464 1463 1463 1462 1461 1461 1460 1460 1460 1460 1460 1460 1460 1460 1460 1460 1461 1461 1461 1461 1462 1463 1464 1465 1466 1467 1468 1470 1470 1471 1472 1473 1474 1476 1477 1477 1478
1503 1502 1500 1499 1497 1496 1495 1493 1492 1491 1490 1489 1488 1487 1486 1485 1484 1483 1482 1481 1481 1480 1479 1479 1478 1478 1477 1477 1476 1476 1475 1474 1473 1472 1471 1470 1469 1468 1467 1467 1466 1466 1465 1465 1464 1463 1462 1462 1462 1461 1461 1460 1460 1459 1459 1458 1458 1458 1458 1458 1458 1459 1459 1459 1459 1459 1459 1459 1459 1460 1461 1462 1463 1464 1465 1466 1467 1467 1468 1469 1471 1473 1474 1474 1474
1502 1500 1499 1498 1496 1495 1493 1492 1491 1489 1488 1487 1486 1485 1484 1483 1482 1481 1480 1479 1478 1478 1477 1476 1475 1475 1475 1474 1474 1473 1473 1473 1472 1471 1470 1468 1467 1466 1465 1465 1464 1463 1462 1462 1462 1461 1460 1459 1459 1459 1459 1458 1458 1458 1457 1456 1456 1456 1456 1456 1457 1457 1457 1457 1457 1457 1457 1457 1457 1458 1459 1459 1460 1461 1462 1463 1463 1464 1465 1467 1468 1470 1471 1472 1472
1501 1499 1498 1496 1495 1493 1492 1491 1489 1488 1486 1485 1484 1483 1482 1481 1480 1479 1478 1477 1476 1475 1474 1474 1473 1472 1471 1471 1471 1470 1470 1470 1470 1469 1468 1467 1465 1464 1463 1463 1462 1461 1460 1459 1459 1459 1458 1458 1457 1456 1456 1456 1456 1456 1455 1455 1454 1454 1454 1454 1455 1455 1455 1455 1455 1454 1454 1455 1455 1456 1456 1456 1457 1458 1459 1460 1461 1462 1463 1464 1465 1466 1468 1469 1470
1500 1498 1497 1495 1494 1492 1491 1489 1488 1486 1485 1483 1482 1481 1479 1478 1477 1476 1475 1474 1474 1473 1472 1471 1470 1469 1468 1467 1467 1467 1467 1467 1467 1467 1466 1465 1464 1462 1461 1460 1459 1458 1458 1457 1456 1456 1456 1456 1455 1455 1454 1454 1454 1454 1454 1453 1452 1452 1452 1452 1452 1453 1452 1452 1452 1452 1452 1452 1452 1453 1453 1454 1455 1456 1457 1458 1459 1460 1460 1461 1462 1463 1465 1466 1467
1498 1497 1495 1494 1492 1491 1489 1488 1486 1485 1483 1482 1480 1479 1477 1476 1474 1473 1472 1471 1470 1469 1469 1468 1468 1467 1465 1464 1464 1463 1463 1464 1464 1464 1463 1462 1461 1460 1458 1457 1456 1455 1455 1454 1453 1453 1452 1453 1453 1453 1452 1452 1452 1452 1451 1451 1450 1450 1450 1450 1450 1450 1450 1450 1450 1450 1450 1450 1450 1450 1451 1452 1453 1454 1455 1456 1457 1457 1458 1459 1459 1461 1463 1464 1464
1497 1495 1494 1492 1490 1489 1487 1486 1485 1483 1482 1480 1479 1477 1476 1474 1472 1471 1469 1468 1466 1466 1465 1465 1464 1464 1463 1461 1460 1460 1460 1460 1460 1460 1459 1459 1458 1457 1455 1454 1453 1452 1452 1451 1450 1450 1450 1450 1450 1450 1450 1450 1449 1449 1449 1449 1448 1448 1447 1447 1447 1447 1447 1447 1447 1447 1447 1448 1448 1448 1450 1450 1450 1451 1453 1454 1454 1455 1456 1456 1457 1459 1461 1462 1463
1495 1493 1492 1490 1488 1487 1485 1484 1483 1481 1480 1478 1477 1476 1474 1473 1471 1469 1467 1466 1464 1463 1462 1461 1461 1460 1459 1458 1457 1456 1456 1456 1456 1456 1455 1455 1454 1453 1451 1450 1449 1449 1448 1448 1447 1447 1447 1447 1446 1447 1447 1447 1447 1447 1446 1446 1446 1445 1445 1445 1445 1445 1444 1444 1444 1444 1445 1445 1445 1446 1447 1448 1448 1449 1450 1451 1452 1453 1453 1454 1455 1456 1458 1459 1461
1492 1490 1489 1488 1486 1485 1483 1482 1480 1479 1478 1476 1475 1474 1472 1471 1469 1468 1466 1464 1463 1461 1459 1458 1457 1456 1455 1454 1452 1452 1453 1453 1453 1452 1451 1451 1450 1449 1447 1446 1445 1445 1445 1445 1444 1444 1443 1443 1443 1444 1444 1444 1444 1444 1443 1443 1442 1442 1442 1442 1442 1442 1442 1442 1442 1442 1442 1442 1443 1443 1444 1445 1446 1447 1448 1449 1450 1451 1451 1452 1454 1455 1455 1457 1459
1489 1488 1486 1485 1484 1482 1481 1479 1478 1476 1475 1474 1472 1471 1470 1469 1467 1465 1464 1462 1461 1459 1457 1456 1454 1452 1451 1450 1448 1447 1448 1449 1449 1449 1448 1447 1446 1445 1443 1442 1441 1440 1440 1441 1441 1440 1440 1440 1439 1440 1440 1440 1440 1440 1440 1439 1439 1439 1439 1439 1439 1439 1439 1439 1439 1439 1440 1440 1440 1441 1441 1442 1443 1444 1445 1446 1447 1448 1449 1450 1451 1452 1453 1454 1456
1486 1485 1484 1482 1481 1479 1478 1476 1475 1473 1472 1471 1470 1469 1467 1466 1465 1463 1461 1460 1458 1456 1455 1453 1451 1450 1448 1447 1445 1443 1442 1444 1445 1444 1444 1444 1442 1441 1439 1437 1436 1436 1436 1436 1436 1436 1436 1436 1435 1435 1436 1436 1437 1437 1437 1436 1435 1435 1436 1436 1436 1436 1436 1436 1437 1437 1437 1437 1437 1438 1438 1439 1440 1441 1442 1442 1444 1445 1446 1447 1449 1450 1450 1452 1453
1483 1482 1481 1480 1478 1477 1475 1474 1472 1470 1469 1468 1466 1465 1464 1463 1462 1460 1458 1457 1455 1454 1452 1450 1449 1447 1445 1444 1442 1440 1438 1439 1441 1440 1440 1440 1439 1437 1435 1433 1431 1431 1430 1431 1431 1431 1431 1431 1431 1430 1430 1431 1432 1433 1433 1433 1432 1432 1433 1433 1433 1433 1433 1433 1434 1435 1435 1435 1435 1435 1435 1436 1437 1438 1439 1440 1441 1442 1443 1445 1446 1447 1448 1449 1451
1480 1479 1478 1477 1476 1474 1473 1471 1469 1468 1466 1465 1463 1462 1460 1459 1458 1456 1455 1453 1451 1450 1449 1447 1445 1444 1443 1441 1439 1437 1435 1434 1436 1436 1435 1435 1435 1433 1431 1429 1427 1426 1426 1425 1425 1426 1426 1426 1426 1425 1425 1426 1427 1428 1429 1429 1429 1429 1429 1430 1429 1430 1430 1431 1431 1432 1432 1432 1433 1433 1433 1433 1434 1435 1436 1437 1438 1439 1440 1442 1444 1445 1445 1446 1448
1478 1476 1475 1474 1473 1471 1470 1468 1466 1465 1463 1462 1460 1459 1457 1456 1454 1452 1451 1449 1447 1446 1444 1443 1441 1440 1440 1438 1436 1435 1432 1430 1431 1432 1431 1431 1431 1429 1427 1425 1423 1422 1421 1421 1420 1420 1420 1421 1421 1421 1421 1421 1422 1424 1425 1425 1425 1425 1426 1426 1426 1427 1428 1428 1429 1429 1430 1430 1430 1430 1430 1431 1431 1432 1433 1434 1435 1436 1437 1439 1440 1441 1443 1444 1446
1475 1474 1472 1471 1470 1468 1467 1465 1463 1462 1460 1459 1457 1455 1454 1452 1450 1449 1447 1445 1443 1441 1439 1438 1436 1434 1434 1434 1432 1431 1430 1427 1426 1427 1427 1426 1426 1425 1423 1421 1420 1418 1417 1416 1415 1414 1414 1415 1416 1417 1417 1417 1417 1418 1420 1421 1422 1422 1422 1422 1422 1424 1425 1425 1425 1426 1426 1427 1427 1427 1428 1428 1428 1429 1429 1430 1431 1432 1434 1435 1437 1439 1440 1442 1444
1473 1471 1470 1468 1467 1465 1464 1462 1461 1459 1457 1456 1453 1452 1451 1449 1447 1445 1443 1441 1438 1436 1434 1433 1431 1428 1428 1428 1427 1426 1425 1424 1422 1422 1422 1422 1421 1421 1419 1417 1416 1415 1413 1411 1410 1409 1409 1410 1411 1412 1413 1413 1413 1413 1415 1417 1418 1418 1417 1418 1419 1420 1421 1422 1422 1421 1422 1424 1424 1425 1425 1425 1425 1426 1426 1427 1428 1429 1430 1432 1434 1436 1438 1441 1443
1470 1469 1468 1466 1465 1463 1461 1460 1458 1456 1455 1453 1450 1448 1447 1446 1444 1442 1440 1437 1434 1432 1430 1428 1426 1423 1422 1421 1421 1420 1419 1419 1418 1417 1416 1416 1416 1415 1414 1413 1412 1412 1410 1407 1405 1405 1404 1405 1406 1407 1409 1410 1410 1410 1410 1412 1413 1413 1413 1414 1415 1415 1416 1418 1417 1417 1418 1419 1421 1421 1422 1422 1422 1423 1423 1424 1425 1426 1428 1430 1432 1434 1437 1439 1441
1467 1466 1465 1463 1462 1461 1459 1457 1456 1454 1452 1450 1448 1445 1444 1442 1440 1438 1436 1434 1431 1428 1426 1424 1422 1419 1417 1415 1415 1414 1414 1413 1412 1412 1411 1411 1410 1410 1409 1408 1408 1407 1406 1403 1401 1401 1400 1400 1401 1402 1403 1405 1406 1406 1406 1407 1408 1409 1409 1409 1410 1410 1412 1413 1413 1413 1413 1414 1416 1417 1418 1419 1419 1420 1421 1422 1422 1423 1425 1427 1430 1432 1434 1436 1437
1465 1464 1462 1461 1459 1458 1456 1455 1453 1452 1450 1448 1445 1443 1441 1439 1436 1435 1433 1430 1428 1425 1423 1421 1419 1416 1413 1411 1409 1409 1409 1408 1407 1406 1406 1405 1404 1404 1404 1403 1402 1402 1400 1398 1397 1396 1396 1396 1397 1397 1398 1400 1401 1401 1401 1402 1403 1405 1405 1405 1405 1406 1406 1408 1410 1410 1409 1409 1410 1412 1414 1415 1416 1417 1418 1419 1420 1421 1422 1424 1427 1429 1430 1432 1434
1462 1461 1459 1458 1457 1455 1453 1451 1450 1449 1447 1446 1443 1441 1439 1436 1434 1432 1430 1427 1425 1422 1419 1417 1415 1413 1410 1408 1406 1405 1404 1403 1402 1402 1401 1400 1399 1399 1399 1397 1396 1396 1395 1394 1393 1392 1392 1392 1392 1392 1393 1394 1395 1396 1396 1397 1399 1400 1400 1399 1399 1400 1402 1403 1405 1406 1406 1406 1406 1408 1410 1411 1412 1413 1415 1416 1418 1419 1420 1421 1423 1425 1427 1429 1431
1459 1458 1457 1455 1454 1452 1450 1449 1447 1446 1444 1442 1440 1438 1437 1434 1431 1429 1427 1424 1422 1419 1416 1414 1412 1410 1408 1406 1404 1402 1401 1400 1398 1398 1398 1397 1395 1394 1394 1392 1392 1391 1390 1389 1389 1389 1388 1388 1387 1387 1387 1388 1389 1390 1391 1392 1393 1394 1394 1394 1394 1396 1397 1399 1401 1403 1404 1404 1404 1405 1406 1408 1410 1411 1412 1414 1416 1417 1418 1419 1420 1422 1424 1426 1428
1456 1455 1454 1453 1451 1450 1448 1446 1444 1442 1440 1439 1437 1435 1433 1431 1429 1426 1425 1422 1418 1415 1413 1411 1409 1407 1405 1403 1402 1400 1397 1396 1396 1396 1395 1393 1392 1391 1390 1389 1388 1388 1386 1386 1386 1385 1384 1383 1382 1382 1382 1382 1383 1384 1385 1386 1387 1388 1389 1389 1390 1392 1393 1395 1397 1398 1399 1401 1402 1403 1404 1405 1407 1408 1409 1411 1413 1415 1416 1417 1418 1420 1422 1424 1426
1454 1453 1452 1450 1449 1447 1445 1443 1441 1439 1437 1436 1434 1433 1431 1428 1425 1422 1421 1420 1417 1413 1410 1407 1405 1405 1403 1401 1400 1398 1394 1392 1393 1393 1392 1390 1389 1389 1388 1387 1386 1385 1384 1383 1383 1381 1380 1379 1378 1378 1377 1377 1378 1379 1380 1381 1382 1383 1385 1386 1387 1388 1389 1390 1391 1393 1395 1397 1399 1400 1401 1403 1404 1406 1407 1409 1411 1413 1415 1416 1417 1418 1420 1422 1424
1452 1451 1450 1448 1447 1445 1443 1441 1439 1437 1435 1433 1431 1429 1427 1426 1424 1420 1417 1415 1414 1412 1409 1406 1404 1404 1401 1398 1398 1396 1391 1388 1389 1390 1389 1388 1387 1386 1384 1382 1381 1380 1380 1380 1380 1378 1376 1374 1373 1374 1374 1373 1374 1374 1375 1376 1377 1379 1381 1382 1382 1383 1384 1385 1387 1388 1391 1393 1395 1397 1399 1400 1401 1403 1405 1407 1409 1411 1413 1414 1416 1417 1419 1420 1422
1449 1449 1447 1446 1444 1443 1440 1438 1437 1435 1433 1431 1427 1424 1422 1420 1420 1418 1415 1412 1410 1408 1407 1405 1403 1403 1402 1399 1397 1395 1391 1388 1388 1387 1386 1384 1382 1380 1378 1377 1376 1375 1375 1375 1375 1373 1372 1370 1370 1370 1370 1370 1370 1370 1371 1372 1373 1375 1376 1377 1378 1379 1380 1381 1383 1384 1387 1390 1392 1394 1396 1398 1399 1401 1403 1405 1407 1409 1411 1413 1415 1416 1417 1419 1420
1447 1446 1445 1444 1442 1441 1438 1437 1435 1433 1430 1428 1426 1423 1419 1414 1413 1413 1412 1410 1407 1405 1404 1402 1401 1400 1400 1398 1395 1392 1389 1387 1385 1383 1381 1379 1376 1374 1372 1371 1370 1369 1369 1369 1369 1368 1367 1367 1366 1366 1366 1366 1366 1366 1366 1367 1369 1371 1372 1373 1374 1375 1376 1378 1379 1381 1383 1386 1389 1391 1394 1397 1398 1400 1401 1403 1405 1407 1409 1411 1413 1414 1416 1417 1419
1445 1444 1443 1441 1440 1438 1437 1435 1433 1430 1428 1426 1424 1421 1418 1414 1409 1406 1405 1405 1403 1402 1401 1400 1398 1396 1395 1394 1391 1388 1386 1383 1381 1378 1376 1373 1371 1368 1366 1364 1363 1363 1364 1363 1363 1362 1362 1362 1362 1362 1363 1363 1363 1363 1363 1363 1365 1367 1368 1369 1370 1372 1373 1375 1376 1378 1381 1384 1387 1390 1393 1395 1397 1399 1400 1402 1403 1405 1408 1410 1411 1413 1415 1416 1418
1444 1443 1441 1439 1438 1436 1435 1433 1431 1428 1427 1425 1423 1420 1417 1414 1410 1406 1402 1399 1398 1396 1396 1396 1395 1393 1391 1389 1388 1385 1382 1380 1377 1374 1372 1369 1365 1363 1361 1359 1358 1358 1358 1358 1357 1357 1357 1358 1358 1358 1359 1359 1360 1360 1361 1361 1362 1363 1365 1366 1367 1369 1370 1372 1374 1376 1379 1381 1385 1388 1391 1394 1396 1398 1399 1401 1402 1404 1407 1409 1410 1412 1413 1415 1416
1442 1441 1440 1438 1436 1434 1433 1431 1429 1427 1425 1423 1421 1419 1416 1413 1410 1407 1403 1400 1397 1394 1392 1391 1390 1390 1388 1386 1384 1382 1379 1376 1374 1371 1368 1365 1362 1358 1356 1354 1353 1353 1353 1353 1352 1352 1353 1353 1354 1355 1356 1357 1357 1358 1358 1359 1360 1361 1362 1363 1365 1366 1368 1370 1372 1374 1377 1380 1383 1386 1389 1392 1394 1397 1398 1400 1402 1404 1406 1408 1409 1411 1412 1414 1415
1440 1439 1438 1436 1434 1433 1431 1430 1428 1426 1423 1421 1419 1417 1414 1412 1409 1406 1403 1401 1398 1395 1391 1389 1387 1386 1385 1383 1381 1379 1376 1374 1371 1368 1365 1362 1359 1355 1352 1351 1350 1350 1350 1350 1349 1349 1349 1350 1351 1353 1353 1354 1355 1355 1356 1357 1358 1359 1360 1361 1363 1364 1366 1368 1370 1373 1376 1379 1382 1385 1388 1391 1394 1396 1398 1400 1401 1403 1405 1407 1408 1410 1411 1413 1414
1438 1437 1436 1434 1433 1431 1429 1428 1426 1424 1422 1420 1418 1415 1413 1411 1408 1406 1403 1400 1397 1395 1391 1388 1385 1382 1381 1380 1378 1376 1374 1371 1369 1366 1363 1360 1357 1354 1352 1349 1348 1348 1348 1348 1348 1348 1348 1349 1350 1351 1351 1352 1353 1354 1355 1355 1356 1357 1359 1360 1361 1363 1365 1367 1369 1372 1375 1378 1381 1384 1388 1390 1393 1395 1397 1399 1401 1402 1404 1406 1407 1409 1410 1412 1413
1436 1435 1434 1432 1431 1429 1427 1426 1424 1422 1420 1418 1416 1414 1412 1409 1407 1405 1402 1399 1397 1394 1391 1388 1385 1381 1378 1377 1375 1373 1371 1369 1366 1364 1362 1359 1357 1354 1352 1350 1348 1348 1347 1347 1348 1348 1349 1349 1349 1350 1350 1351 1351 1352 1353 1353 1354 1355 1357 1358 1360 1361 1363 1366 1369 1371 1374 1377 1380 1384 1387 1389 1392 1394 1396 1398 1400 1402 1403 1405 1407 1408 1409 1410 1411
1434 1433 1432 1430 1429 1427 1425 1424 1422 1420 1418 1417 1415 1413 1410 1408 1406 1403 1401 1398 1396 1394 1391 1388 1385 1382 1379 1376 1373 1371 1369 1366 1363 1361 1360 1358 1356 1354 1352 1351 1349 1348 1347 1347 1348 1348 1348 1348 1349 1349 1349 1349 1350 1350 1351 1352 1353 1354 1355 1357 1358 1360 1362 1365 1368 1371 1374 1377 1380 1383 1386 1388 1391 1393 1395 1398 1400 1401 1403 1405 1406 1407 1408 1409 1410
1432 1431 1430 1429 1427 1425 1424 1422 1420 1418 1417 1415 1413 1411 1409 1407 1404 1402 1400 1397 1395 1393 1391 1388 1385 1382 1380 1377 1373 1370 1368 1365 1363 1361 1358 1357 1355 1353 1352 1350 1349 1348 1347 1347 1347 1347 1347 1347 1347 1347 1347 1348 1348 1349 1349 1350 1351 1353 1354 1356 1357 1359 1362 1365 1368 1370 1373 1377 1380 1382 1385 1388 1390 1392 1394 1397 1399 1401 1402 1404 1405 1406 1407 1408 1409
1430 1429 1428 1427 1425 1423 1422 1420 1419 1417 1415 1413 1411 1410 1408 1406 1404 1401 1399 1397 1394 1392 1390 1388 1385 1383 1380 1378 1375 1372 1369 1367 1364 1361 1359 1357 1355 1353 1351 1350 1349 1348 1347 1347 1346 1346 1345 1345 1345 1345 1346 1346 1347 1347 1348 1349 1350 1352 1353 1355 1357 1359 1362 1365 1368 1371 1374 1377 1379 1382 1385 1387 1389 1392 1394 1396 1398 1400 1402 1403 1404 1405 1406 1407 1409
1428 1427 1426 1425 1423 1422 1420 1419 1417 1416 1414 1412 1410 1409 1406 1405 1403 1401 1398 1396 1394 1392 1390 1387 1385 1383 1381 1378 1376 1373 1371 1368 1366 1363 1360 1358 1355 1353 1351 1350 1348 1347 1346 1346 1345 1345 1344 1344 1344 1344 1344 1345 1346 1346 1347 1349 1350 1351 1353 1355 1358 1361 1363 1366 1370 1372 1375 1377 1380 1382 1384 1387 1389 1391 1393 1395 1397 1399 1401 1402 1403 1404 1405 1407 1408
1426 1425 1424 1423 1422 1420 1419 1417 1416 1414 1412 1411 1409 1407 1406 1404 1402 1400 1398 1396 1394 1392 1389 1387 1385 1383 1381 1379 1377 1374 1372 1369 1367 1364 1362 1359 1357 1354 1352 1351 1349 1348 1347 1346 1345 1345 1344 1344 1344 1344 1344 1345 1346 1347 1348 1349 1351 1353 1355 1358 1361 1363 1366 1368 1371 1373 1376 1378 1380 1382 1385 1387 1389 1391 1393 1395 1397 1398 1400 1401 1402 1404 1405 1406 1407
1425 1424 1423 1422 1420 1419 1417 1416 1414 1413 1411 1410 1408 1406 1405 1403 1401 1399 1397 1395 1393 1391 1389 1387 1385 1383 1381 1379 1377 1375 1373 1370 1368 1366 1364 1361 1359 1357 1355 1353 1352 1351 1349 1348 1347 1346 1346 1346 1346 1346 1346 1347 1348 1349 1351 1352 1354 1356 1359 1361 1364 1366 1368 1370 1373 1375 1377 1379 1381 1383 1385 1387 1389 1391 1393 1394 1396 1398 1399 1400 1401 1403 1404 1405 1406
1423 1422 1421 1420 1419 1418 1416 1415 1413 1412 1410 1408 1407 1405 1404 1402 1400 1398 1396 1394 1392 1391 1389 1387 1385 1383 1381 1379 1377 1375 1373 1371 1369 1368 1366 1364 1362 1360 1358 1357 1355 1354 1353 1352 1351 1350 1349 1349 1349 1349 1349 1350 1352 1353 1354 1356 1358 1360 1362 1364 1366 1368 1370 1372 1374 1376 1378 1380 1382 1383 1385 1387 1389 1391 1392 1394 1396 1397 1398 1399 1401 1402 1403 1404 1405
1422 1421 1420 1418 1417 1416 1415 1413 1412 1410 1409 1407 1405 1404 1402 1401 1399 1397 1395 1394 1392 1390 1388 1387 1385 1383 1381 1379 1378 1376 1374 1372 1371 1369 1367 1366 1364 1363 1361 1360 1359 1358 1357 1356 1355 1354 1353 1353 1353 1353 1353 1354 1355 1356 1357 1359 1360 1362 1364 1366 1368 1370 1371 1373 1375 1377 1379 1381 1382 1384 1386 1387 1389 1391 1392 1394 1395 1396 1397 1399 1400 1401 1402 1403 1403
1420 1419 1418 1417 1416 1414 1413 1412 1410 1409 1407 1406 1404 1403 1401 1399 1398 1396 1394 1393 1391 1389 1388 1386 1385 1383 1381 1380 1378 1376 1375 1373 1372 1370 1369 1367 1366 1365 1364 1363 1362 1361 1360 1359 1359 1358 1358 1357 1356 1356 1357 1357 1358 1359 1360 1361 1362 1364 1365 1367 1369 1371 1372 1374 1376 1378 1379 1381 1383 1384 1386 1388 1389 1391 1392 1393 1395 1396 1397 1398 1399 1400 1401 1401 1401
1418 1417 1416 1415 1414 1412 1411 1410 1409 1407 1406 1404 1403 1401 1400 1398 1397 1395 1394 1392 1390 1389 1387 1386 1384 1383 1381 1380 1378 1377 1375 1374 1373 1371 1370 1369 1368 1367 1366 1365 1364 1363 1362 1362 1361 1361 1360 1360 1359 1359 1359 1360 1361 1361 1362 1363 1365 1366 1367 1369 1370 1372 1374 1375 1377 1378 1380 1381 1383 1385 1386 1388 1389 1391 1392 1393 1394 1395 1397 1398 1398 1399 1399 1400 1400
1416 1415 1414 1413 1412 1410 1409 1408 1406 1405 1404 1403 1401 1400 1398 1397 1395 1394 1392 1391 1389 1388 1386 1385 1384 1382 1381 1380 1378 1377 1376 1375 1373 1372 1371 1370 1369 1368 1367 1366 1366 1365 1364 1364 1363 1363 1363 1362 1362 1362 1362 1362 1363 1364 1365 1366 1367 1368 1369 1371 1372 1373 1375 1376 1378 1379 1380 1382 1383 1385 1386 1388 1389 1390 1392 1393 1394 1395 1396 1397 1397 1398 1398 1398 1399
1414 1413 1412 1411 1410 1408 1407 1406 1404 1403 1402 1401 1399 1398 1397 1395 1394 1393 1391 1390 1388 1387 1386 1384 1383 1382 1380 1379 1378 1377 1376 1375 1374 1373 1372 1371 1370 1369 1369 1368 1367 1366 1366 1365 1365 1365 1364 1364 1364 1364 1364 1365 1365 1366 1367 1368 1369 1370 1371 1373 1374 1375 1376 1377 1379 1380 1381 1382 1384 1385 1387 1388 1389 1390 1392 1393 1394 1395 1396 1396 1396 1397 1397 1397 1398
1411 1410 1409 1408 1407 1406 1404 1403 1401 1400 1399 1398 1397 1396 1394 1393 1392 1391 1390 1388 1387 1386 1385 1383 1382 1381 1380 1379 1378 1377 1376 1375 1374 1373 1372 1371 1371 1370 1369 1369 1368 1368 1367 1367 1367 1366 1366 1366 1366 1366 1367 1367 1368 1368 1369 1370 1371 1372 1373 1374 1375 1376 1377 1378 1379 1380 1382 1383 1384 1385 1386 1388 1389 1390 1391 1392 1393 1394 1395 1395 1395 1396 1396 1396 1396